Location: Dammartin
(48.9032°N, 1.6195°E)
Time: 16:53:06
(UTC+00:00)

Cosmos 2278 - Pass Details

Date: 03 February 2023
Orbit: 838 x 853 km, 71.1° (Epoch: 30 March)

Event Time Altitude Azimuth Distance (km) Brightness Sun altitude
Rises 18:00:42 0° 217° (SW) 3,388 7.7 -11.2°
Reaches altitude 10° 18:03:10 10° 221° (SW) 2,459 7.0 -11.6°
Maximum altitude 18:08:46 62° 302° (WNW) 949 4.2 -12.5°
Drops below altitude 10° 18:14:25 10° 23° (NNE) 2,485 5.8 -13.5°
Enters shadow 18:16:26 - 27° (NNE) 3,242 6.4 -13.8°
